Temperature
15 15 14 14 14 14 14 14 14 12 12 12 12 11 11 11 11 11 11 11 11 12 11 11 11 11 11 11 11 11 11 10 10 10 10 10 10 9
15 15 14 14 14 14 14 14 14 14 13 12 12 12 11 11 11 11 11 11 11 11 11 11 11 11 11 11 11 11 10 10 10 10 10 10 9 9
15 15 14 14 14 14 14 14 13 13 13 13 12 12 11 11 11 11 11 11 11 11 11 11 11 11 11 11 11 11 10 10 10 10 10 9 9 9
15 15 14 14 14 14 14 14 13 13 13 13 12 12 11 11 11 11 11 11 11 11 11 11 11 11 11 11 10 10 10 10 10 10 9 9 9 9
15 15 15 14 14 14 14 14 14 13 13 13 13 12 11 11 11 11 11 11 11 10 10 10 10 10 10 10 10 10 10 10 10 9 9 9 9 9
15 15 15 14 14 14 14 14 14 13 13 13 13 12 12 11 11 11 11 11 10 10 10 10 10 10 10 10 10 10 10 9 9 9 9 9 9 8
14 14 14 14 14 14 14 14 14 13 13 13 13 12 12 11 11 11 11 10 10 10 10 10 10 10 10 10 9 9 9 9 9 9 9 9 8 8
14 14 14 14 14 14 14 14 14 14 13 13 13 13 12 12 11 11 11 10 10 10 10 10 10 10 10 9 9 9 9 9 9 9 9 8 8 8
14 14 14 14 14 14 14 13 13 13 13 13 13 13 12 12 11 11 11 11 10 10 10 10 9 9 9 9 9 9 9 9 9 8 8 8 8 8
14 14 14 14 14 14 13 13 13 13 13 13 12 12 12 12 11 11 11 10 10 9 9 9 9 9 9 9 9 9 9 8 8 8 8 8 8 7
14 14 14 14 14 13 13 13 13 13 13 12 12 12 12 11 11 11 11 10 10 10 9 9 9 9 9 9 9 9 8 8 8 8 8 8 7 7
13 13 13 13 13 13 13 13 13 13 12 12 12 12 11 11 11 11 11 10 10 9 9 9 9 9 9 9 9 8 8 8 8 8 7 7 7 7
13 13 13 13 13 13 13 13 13 13 12 12 12 12 11 11 11 11 11 10 10 10 9 9 9 9 8 8 8 8 8 8 7 7 7 7 7 6
13 13 13 13 13 13 13 13 12 12 12 12 12 12 11 11 11 11 10 10 10 9 9 9 9 9 8 8 8 8 8 7 7 7 7 7 6 6
12 12 12 12 12 12 12 12 12 12 12 12 12 12 11 11 11 10 10 10 9 9 9 9 9 8 8 8 8 8 7 7 7 7 7 6 6 6
12 12 12 12 12 12 12 12 12 12 12 12 12 11 11 11 10 10 10 10 9 9 9 9 8 8 8 8 8 7 7 7 7 7 6 6 6 6
11 11 11 11 11 12 12 11 11 11 11 11 11 11 11 11 10 10 10 10 9 9 9 8 8 8 8 7 7 7 7 7 7 6 6 6 6 6
11 11 11 11 11 11 11 11 11 11 11 11 11 11 11 10 10 10 9 9 9 9 8 8 8 8 7 7 7 7 7 7 6 6 6 6 6 6
10 10 11 11 11 11 11 11 11 11 11 11 11 10 10 10 10 10 9 9 9 9 8 8 7 7 7 7 7 7 7 7 6 6 6 6 6 6
10 10 10 10 10 11 11 11 11 10 10 10 10 10 10 10 10 9 9 9 9 8 8 8 7 7 7 7 7 7 6 6 6 6 6 5 5 5
10 10 10 10 10 10 10 10 10 10 10 10 10 10 10 9 9 9 9 9 8 8 8 8 8 7 6 6 6 7 6 6 6 5 5 5 5 5
9 9 9 9 10 10 10 10 10 10 9 9 9 9 9 9 9 9 9 8 8 8 8 8 7 7 6 6 6 6 6 6 5 5 5 5 4 4
9 9 9 9 9 9 9 9 9 9 9 9 9 9 9 9 9 8 8 8 8 8 7 7 7 7 6 6 6 6 6 5 5 5 5 5 4 4
Wind_Speed
4 4 3 3 4 4 4 5 5 4 2 2 1 1 3 5 5 6 6 6 7 7 8 8 8 9 8 9 9 10 10 10 10 11 11 11 11 12
4 4 3 3 3 4 4 4 4 4 3 3 2 2 4 5 5 6 5 5 6 7 7 7 8 8 8 8 8 9 9 9 9 10 10 11 11 11
4 5 5 4 4 4 4 4 4 4 4 2 1 2 3 4 4 5 5 5 5 6 6 7 7 8 8 8 8 9 9 9 9 9 9 10 10 11
6 5 5 5 5 4 4 5 4 4 5 5 2 2 2 4 4 4 4 4 4 5 5 6 6 6 7 7 7 8 8 9 9 10 9 9 9 9
6 6 6 6 5 4 5 5 4 4 4 5 4 2 2 2 2 2 3 2 3 3 4 4 4 4 5 5 6 6 7 7 8 8 9 9 9 9
6 6 6 8 8 7 6 6 6 5 5 6 4 3 2 2 3 2 1 0 0 2 2 2 2 3 3 3 4 4 4 5 6 6 7 8 9 9
4 5 6 8 10 8 7 7 8 6 6 5 5 3 3 3 3 3 2 1 0 0 1 1 1 1 1 0 1 2 2 3 4 4 5 6 6 7
5 5 5 6 9 10 11 12 12 10 8 6 5 5 5 4 4 4 3 2 1 1 2 0 1 1 2 2 1 1 1 1 1 1 2 3 4 5
6 5 5 5 6 6 8 11 11 12 13 10 8 8 7 7 7 5 4 4 3 3 3 1 1 2 4 3 3 2 2 1 1 1 0 2 2 3
6 6 7 6 7 8 7 6 5 6 9 8 8 8 7 8 9 7 6 4 1 2 4 2 2 2 3 3 3 3 2 2 1 1 0 1 1 2
5 6 7 7 10 11 9 8 6 4 6 8 8 8 9 11 11 6 5 4 2 2 2 3 2 1 1 2 3 3 3 2 2 2 1 1 0 1
3 5 8 9 11 13 10 9 8 6 5 5 4 5 7 9 12 9 7 5 3 2 3 3 2 2 1 2 2 3 3 4 3 3 2 2 1 0
4 4 5 10 12 14 12 9 10 8 6 6 5 4 3 4 5 7 7 6 5 3 4 4 3 2 2 1 1 2 4 3 4 4 4 3 3 2
6 5 6 10 11 12 10 9 11 9 5 5 4 4 4 4 4 5 7 7 5 4 7 7 3 4 3 2 2 2 2 3 4 4 5 4 4 4
4 7 8 10 10 9 10 11 10 6 6 5 5 5 4 4 4 3 3 4 2 2 5 6 4 4 3 3 3 2 1 2 4 4 4 4 5 4
3 4 6 8 7 7 7 7 6 7 7 6 5 4 3 3 3 3 3 3 1 0 1 3 6 5 3 3 3 3 3 2 2 3 4 4 5 6
3 2 2 3 5 4 4 5 5 5 6 4 5 4 4 4 3 3 3 3 3 3 2 0 1 2 3 3 3 4 3 3 3 2 2 2 4 7
5 4 5 6 7 7 7 6 6 6 6 6 6 6 6 6 4 3 3 4 4 4 3 3 2 1 1 2 5 5 4 3 3 3 3 3 4 5
4 5 6 7 7 7 7 7 7 6 6 6 6 6 6 6 5 5 5 4 4 4 4 3 3 4 3 4 3 5 4 3 2 2 3 3 4 5
5 5 6 6 6 7 7 7 6 5 5 6 6 6 6 6 6 6 6 6 5 4 4 4 5 6 6 5 3 3 6 4 3 3 3 2 3 5
6 5 5 6 6 6 7 7 7 7 7 7 7 7 7 6 6 6 6 7 5 5 6 7 6 6 2 2 1 3 3 7 7 4 3 2 2 2
6 6 6 5 6 6 6 6 7 7 7 7 7 7 7 7 7 8 7 6 6 6 6 4 3 3 3 5 6 5 4 3 5 8 9 7 3 4
6 6 5 5 5 5 5 6 7 7 7 7 7 7 7 7 7 7 7 7 6 6 5 4 3 3 4 4 4 4 4 3 2 2 4 9 11 12
Wind_Direction
177 171 167 177 164 163 153 152 147 154 191 206 184 173 132 119 118 112 102 97 92 87 81 75 69 65 63 63 62 59 55 54 56 56 56 54 53 52
174 164 166 167 164 158 159 153 141 147 168 196 193 178 153 135 126 119 114 106 96 91 85 80 73 68 64 65 63 61 57 55 55 55 56 53 52 51
181 171 177 167 164 169 160 154 146 135 144 169 137 135 132 130 123 119 108 105 99 94 93 87 81 75 70 68 67 65 62 58 56 55 56 55 54 53
190 178 185 175 168 170 166 167 160 149 144 150 142 136 145 151 138 133 127 114 106 97 97 92 88 83 77 75 74 69 65 60 57 55 54 56 54 52
191 191 191 171 176 174 168 166 160 150 135 145 150 139 126 140 117 121 125 123 118 105 96 85 83 84 85 81 81 76 70 62 57 55 53 53 51 48
193 195 192 183 183 175 171 168 156 142 137 141 143 141 139 142 134 135 116 56 135 122 112 93 76 67 76 81 85 84 76 66 60 58 55 53 50 46
191 196 194 186 180 175 171 167 157 151 148 149 152 143 157 162 180 171 161 159 345 146 113 94 97 55 14 43 92 103 94 82 71 64 56 51 48 46
196 200 198 186 185 182 175 168 165 164 166 163 168 178 191 185 167 163 149 147 227 228 145 235 187 264 252 234 196 171 168 140 101 68 52 46 45 43
195 192 197 192 176 177 175 170 174 175 170 169 176 189 187 187 171 168 177 178 196 187 143 208 252 252 249 246 225 217 216 204 179 173 60 36 29 30
193 193 189 184 179 170 163 162 173 185 185 179 185 191 187 180 179 179 176 158 133 172 160 189 217 242 258 249 247 232 226 221 208 193 354 339 19 35
200 195 186 184 180 166 162 166 173 196 194 189 185 180 177 175 167 142 143 149 189 218 185 176 199 209 262 266 256 233 222 229 235 234 241 264 264 351
209 202 192 187 180 171 172 172 180 191 172 166 165 174 173 176 174 171 169 166 170 210 203 173 180 154 253 286 266 242 237 248 249 252 260 261 246 229
205 209 204 188 183 180 179 182 186 174 170 165 162 160 158 168 178 182 177 172 174 205 192 166 169 168 185 237 287 249 231 245 250 252 258 254 246 216
208 211 199 187 183 182 183 184 171 158 157 158 163 176 182 188 187 183 186 188 192 200 186 170 167 175 170 192 246 265 244 242 238 244 254 260 257 250
210 202 192 187 182 184 188 179 166 162 163 171 188 197 195 184 165 153 155 155 146 178 178 181 168 165 169 190 208 211 236 254 229 229 236 236 237 239
197 189 180 176 175 179 180 180 178 180 178 187 192 186 162 159 170 167 162 158 140 299 230 197 188 170 179 198 193 209 204 219 233 229 229 240 256 250
164 159 159 164 178 185 187 188 185 182 187 182 178 176 177 179 187 174 164 161 175 193 208 246 154 182 202 184 199 219 218 228 229 216 209 244 256 252
162 190 193 193 196 195 195 196 195 196 195 187 185 187 189 191 191 181 173 181 198 206 204 195 158 92 16 297 226 218 223 230 229 210 199 224 261 262
190 205 203 200 202 199 198 198 201 200 190 187 191 193 192 191 188 192 193 195 208 212 209 190 179 175 202 249 271 216 208 222 209 213 218 220 245 260
208 210 213 207 203 201 200 201 200 191 187 190 191 191 191 190 192 197 200 204 210 212 210 203 203 204 212 223 230 248 216 203 204 225 236 242 261 274
214 216 217 213 210 208 204 200 197 197 195 194 196 197 196 194 201 204 205 205 204 208 217 224 223 210 189 139 235 261 255 226 215 210 206 223 272 281
214 217 218 215 213 212 206 198 197 199 199 202 203 201 200 200 204 205 204 204 208 213 222 224 177 163 179 208 232 245 257 264 246 235 225 216 202 223
215 215 215 214 212 210 207 202 201 205 204 205 206 204 201 205 207 206 207 207 207 210 211 204 187 189 205 215 230 244 245 246 247 254 258 252 247 251
Height
1548 1549 1550 1551 1552 1553 1554 1555 1556 1556 1558 1558 1559 1560 1560 1560 1560 1560 1559 1559 1558 1557 1556 1555 1554 1552 1551 1550 1548 1547 1545 1544 1542 1541 1539 1537 1535 1532
1547 1548 1549 1550 1551 1552 1553 1554 1555 1556 1556 1557 1558 1559 1560 1560 1560 1560 1560 1559 1558 1558 1557 1556 1555 1553 1552 1551 1550 1548 1547 1545 1544 1542 1540 1539 1536 1534
1545 1546 1547 1548 1549 1551 1552 1553 1554 1555 1555 1556 1557 1558 1559 1560 1560 1560 1560 1559 1559 1558 1557 1556 1555 1554 1553 1552 1550 1549 1548 1547 1545 1543 1542 1540 1538 1536
1543 1544 1545 1547 1548 1549 1550 1551 1552 1553 1554 1555 1556 1557 1558 1559 1560 1560 1560 1559 1559 1558 1558 1557 1556 1555 1554 1552 1551 1550 1549 1548 1546 1545 1543 1541 1539 1537
1541 1542 1543 1544 1546 1547 1548 1549 1551 1552 1553 1554 1554 1556 1557 1558 1559 1559 1559 1559 1559 1558 1558 1557 1556 1555 1554 1553 1552 1551 1550 1548 1547 1546 1544 1542 1541 1539
1538 1539 1541 1542 1543 1545 1546 1547 1548 1550 1551 1552 1553 1554 1555 1556 1557 1557 1558 1558 1558 1558 1557 1557 1556 1555 1554 1553 1552 1551 1550 1549 1548 1546 1545 1543 1542 1540
1535 1536 1538 1539 1541 1542 1544 1545 1546 1547 1549 1550 1551 1552 1553 1553 1554 1555 1556 1556 1556 1557 1556 1556 1556 1555 1554 1553 1552 1551 1550 1549 1548 1546 1545 1544 1542 1541
1532 1533 1535 1536 1538 1540 1541 1543 1544 1545 1546 1547 1548 1549 1550 1551 1552 1553 1554 1554 1554 1556 1555 1555 1555 1554 1553 1553 1552 1551 1550 1549 1548 1546 1545 1543 1542 1541
1528 1530 1531 1533 1535 1537 1538 1540 1541 1543 1544 1545 1546 1547 1548 1549 1550 1551 1552 1552 1553 1554 1553 1553 1553 1553 1552 1552 1551 1550 1549 1548 1547 1546 1544 1543 1541 1540
1525 1527 1528 1530 1532 1533 1535 1537 1538 1540 1541 1542 1544 1545 1546 1547 1548 1549 1550 1551 1551 1552 1552 1551 1551 1551 1551 1550 1549 1549 1548 1547 1546 1545 1543 1542 1541 1539
1522 1523 1525 1527 1528 1530 1532 1533 1535 1536 1538 1540 1541 1543 1544 1545 1546 1547 1547 1548 1548 1549 1549 1549 1549 1549 1548 1548 1547 1547 1546 1545 1544 1543 1542 1541 1540 1538
1518 1519 1521 1523 1525 1527 1528 1530 1531 1533 1535 1536 1538 1540 1541 1542 1543 1543 1544 1545 1545 1546 1547 1547 1546 1546 1546 1546 1545 1545 1544 1543 1542 1541 1540 1539 1538 1536
1513 1515 1517 1519 1521 1523 1524 1526 1528 1530 1531 1533 1534 1536 1537 1538 1539 1540 1541 1542 1543 1543 1544 1544 1544 1544 1544 1543 1543 1542 1541 1541 1540 1539 1538 1537 1536 1534
1509 1511 1512 1515 1517 1519 1520 1522 1525 1526 1528 1529 1531 1532 1533 1534 1536 1537 1538 1539 1540 1541 1541 1541 1541 1541 1541 1540 1540 1539 1539 1538 1537 1536 1535 1534 1533 1532
1505 1506 1508 1510 1512 1514 1516 1518 1520 1522 1524 1525 1526 1528 1530 1531 1533 1534 1535 1536 1537 1537 1538 1538 1538 1538 1538 1537 1536 1536 1536 1535 1534 1533 1532 1531 1530 1529
1500 1501 1503 1505 1507 1509 1512 1514 1516 1518 1519 1521 1523 1525 1526 1527 1528 1530 1531 1531 1532 1533 1534 1534 1535 1535 1534 1534 1533 1533 1533 1532 1531 1530 1529 1528 1528 1526
1495 1497 1498 1500 1502 1504 1507 1509 1511 1513 1515 1517 1518 1520 1521 1523 1524 1526 1526 1527 1528 1528 1529 1530 1531 1531 1530 1530 1529 1529 1529 1528 1528 1527 1526 1524 1524 1523
1490 1491 1493 1495 1497 1499 1501 1503 1505 1508 1510 1512 1514 1515 1517 1518 1520 1521 1522 1523 1523 1524 1525 1525 1526 1526 1526 1526 1526 1525 1525 1524 1524 1523 1522 1520 1519 1519
1485 1485 1487 1490 1492 1494 1496 1498 1500 1503 1505 1507 1509 1510 1512 1513 1514 1516 1517 1518 1518 1519 1520 1521 1521 1521 1520 1520 1521 1522 1521 1520 1519 1519 1518 1517 1515 1515
1479 1480 1482 1484 1486 1488 1490 1493 1495 1497 1499 1501 1503 1505 1507 1508 1509 1510 1511 1512 1513 1514 1515 1516 1516 1516 1516 1516 1516 1516 1517 1516 1515 1514 1513 1512 1511 1511
1474 1475 1477 1479 1481 1483 1485 1487 1489 1491 1493 1495 1497 1499 1501 1502 1503 1505 1506 1507 1508 1509 1509 1510 1511 1512 1512 1512 1511 1510 1511 1511 1511 1510 1509 1508 1506 1505
1468 1470 1472 1473 1475 1477 1479 1481 1483 1485 1487 1489 1491 1493 1495 1496 1498 1499 1500 1501 1502 1503 1504 1505 1506 1506 1506 1506 1505 1505 1506 1506 1506 1505 1505 1504 1502 1500
1463 1465 1466 1468 1470 1471 1473 1475 1477 1479 1481 1483 1484 1486 1488 1490 1491 1493 1494 1495 1496 1497 1498 1499 1500 1500 1500 1500 1500 1500 1500 1500 1500 1500 1499 1499 1498 1497